Location: Martin
(32.0982°N, 93.2193°W)
Time: 16:22:13
(UTC+00:00)

Hubble Space Telescope - Pass Details

Date: 27 September 2024
Orbit: 503 x 507 km, 28.5° (Epoch: 12 October)

Event Time Altitude Azimuth Distance (km) Brightness Sun altitude
Exits shadow 10:55:27 18° 213° (SSW) 1,283 2.3 -15.4°
Maximum altitude 10:57:34 29° 165° (SSE) 935 2.0 -15.0°
Drops below altitude 10° 11:00:59 10° 104° (ESE) 1,697 4.5 -14.3°
Sets 11:03:24 0° 93° (E) 2,582 6.1 -13.8°
